User: anonymous
Location: Mentone
(34.5413°N, 85.5351°W)
Time: 19:32:20
(UTC-05:00)
Language:

Cosmos 2026 Rocket - Orbit

View from above orbital plane
View from above orbital plane
View from above satellite
View from above satellite

Ground track
Ground track

The orbit data is extracted from the following two-line orbital elements,

1 20046U 89042B   14292.61113002 -.00000031  00000-0 -45102-4 0  3836
2 20046 082.9350 307.1648 0040726 272.0625 206.7088 13.77975312275441
Epoch (UTC): 19 October 2014 14:40:01
Eccentricity: 0.0040726
inclination: 82.9350°
perigee height: 941 km
apogee height: 1001 km
right ascension of ascending node: 307.1648°
argument of perigee: 272.0625°
revolutions per day: 13.77975312
mean anomaly at epoch: 206.7088°
orbit number at epoch: 27544

The dashed part of the orbit path shows where the satellite is in the earth's shadow,  

DLR